Total_Precipitation_Accumulation
0.20 0.17 0.24 0.27 0.25 0.28 0.37 0.35 0.27 0.13 0.12 0.12 0.12 0.13 0.14 0.13 0.12 0.11 0.08 0.08 0.08 0.10 0.12 0.15 0.17 0.20 0.24 0.31 0.39 0.44 0.46 0.53 0.56 0.63 0.72 0.72 0.70 0.73 0.82 0.94 1.00 1.01 0.98 0.91
0.19 0.13 0.17 0.21 0.17 0.18 0.19 0.15 0.12 0.10 0.12 0.14 0.14 0.14 0.14 0.13 0.12 0.12 0.10 0.08 0.09 0.10 0.13 0.18 0.22 0.25 0.28 0.31 0.36 0.44 0.45 0.50 0.53 0.60 0.69 0.72 0.67 0.70 0.80 0.91 0.95 0.95 0.94 0.92
0.36 0.16 0.30 0.33 0.18 0.15 0.16 0.14 0.12 0.14 0.15 0.14 0.15 0.15 0.16 0.15 0.13 0.12 0.10 0.10 0.09 0.11 0.15 0.19 0.25 0.25 0.30 0.33 0.37 0.43 0.45 0.46 0.52 0.59 0.62 0.70 0.69 0.71 0.80 0.89 0.91 0.90 0.87 0.85
0.60 0.44 0.63 0.30 0.13 0.12 0.15 0.15 0.14 0.13 0.11 0.12 0.15 0.16 0.19 0.17 0.15 0.13 0.12 0.12 0.11 0.12 0.16 0.18 0.23 0.22 0.26 0.31 0.39 0.46 0.47 0.43 0.49 0.57 0.58 0.69 0.73 0.73 0.82 0.89 0.86 0.85 0.84 0.79
0.83 0.61 0.30 0.15 0.15 0.18 0.24 0.24 0.16 0.11 0.08 0.07 0.10 0.14 0.19 0.15 0.14 0.14 0.14 0.16 0.15 0.14 0.16 0.17 0.20 0.20 0.22 0.26 0.36 0.46 0.49 0.43 0.45 0.54 0.58 0.66 0.72 0.78 0.84 0.90 0.85 0.81 0.78 0.78
0.89 0.64 0.27 0.17 0.13 0.15 0.23 0.31 0.17 0.11 0.09 0.08 0.11 0.20 0.20 0.15 0.13 0.13 0.13 0.14 0.14 0.14 0.15 0.16 0.19 0.20 0.19 0.23 0.29 0.41 0.48 0.41 0.43 0.49 0.51 0.59 0.66 0.75 0.81 0.81 0.79 0.79 0.74 0.72
0.73 0.54 0.18 0.12 0.15 0.17 0.35 0.38 0.18 0.12 0.10 0.10 0.13 0.17 0.16 0.16 0.16 0.15 0.14 0.13 0.12 0.13 0.14 0.17 0.19 0.20 0.21 0.23 0.25 0.34 0.47 0.43 0.44 0.47 0.50 0.57 0.64 0.65 0.72 0.76 0.74 0.77 0.74 0.71
0.53 0.56 0.23 0.14 0.21 0.35 0.38 0.19 0.13 0.10 0.08 0.08 0.08 0.07 0.08 0.12 0.16 0.18 0.15 0.14 0.14 0.13 0.14 0.15 0.17 0.21 0.23 0.26 0.26 0.33 0.42 0.43 0.48 0.52 0.54 0.57 0.61 0.56 0.59 0.69 0.72 0.75 0.78 0.79
0.43 0.26 0.13 0.14 0.21 0.23 0.18 0.15 0.10 0.09 0.08 0.07 0.06 0.06 0.08 0.11 0.15 0.17 0.16 0.15 0.15 0.15 0.14 0.14 0.16 0.20 0.26 0.30 0.30 0.36 0.40 0.41 0.47 0.53 0.56 0.57 0.55 0.53 0.56 0.63 0.70 0.73 0.76 0.78
0.27 0.13 0.09 0.10 0.12 0.12 0.10 0.09 0.09 0.08 0.08 0.08 0.07 0.06 0.08 0.11 0.14 0.15 0.16 0.16 0.17 0.18 0.15 0.16 0.16 0.19 0.26 0.32 0.31 0.36 0.38 0.39 0.44 0.49 0.55 0.58 0.54 0.51 0.51 0.57 0.67 0.70 0.72 0.71
0.19 0.09 0.10 0.09 0.08 0.07 0.06 0.06 0.07 0.07 0.06 0.06 0.07 0.07 0.08 0.10 0.13 0.15 0.17 0.17 0.18 0.19 0.18 0.18 0.19 0.22 0.28 0.32 0.32 0.36 0.36 0.36 0.40 0.42 0.52 0.61 0.60 0.54 0.51 0.50 0.63 0.71 0.69 0.68
0.13 0.08 0.10 0.10 0.07 0.06 0.06 0.06 0.07 0.07 0.06 0.05 0.06 0.07 0.09 0.09 0.11 0.16 0.20 0.19 0.18 0.19 0.19 0.20 0.22 0.25 0.30 0.33 0.33 0.33 0.34 0.34 0.37 0.40 0.48 0.56 0.59 0.61 0.66 0.62 0.63 0.63 0.62 0.67
0.06 0.05 0.05 0.06 0.07 0.07 0.07 0.06 0.06 0.08 0.08 0.07 0.06 0.06 0.08 0.09 0.10 0.15 0.19 0.19 0.20 0.21 0.22 0.23 0.24 0.28 0.32 0.34 0.35 0.34 0.33 0.35 0.38 0.42 0.46 0.52 0.53 0.54 0.64 0.73 0.73 0.66 0.61 0.62
0.03 0.03 0.04 0.04 0.06 0.07 0.07 0.06 0.05 0.06 0.07 0.07 0.07 0.06 0.06 0.08 0.10 0.15 0.20 0.20 0.19 0.20 0.22 0.25 0.27 0.30 0.34 0.37 0.38 0.36 0.33 0.37 0.42 0.42 0.46 0.52 0.52 0.49 0.52 0.58 0.63 0.65 0.66 0.64
0.03 0.03 0.03 0.03 0.04 0.06 0.08 0.07 0.06 0.06 0.08 0.08 0.07 0.06 0.07 0.09 0.12 0.17 0.21 0.21 0.20 0.19 0.22 0.26 0.29 0.34 0.37 0.41 0.41 0.35 0.35 0.37 0.42 0.42 0.46 0.50 0.51 0.50 0.50 0.50 0.52 0.56 0.62 0.69
0.04 0.03 0.03 0.03 0.03 0.05 0.08 0.08 0.07 0.07 0.08 0.09 0.07 0.07 0.07 0.08 0.11 0.16 0.21 0.24 0.25 0.24 0.26 0.28 0.33 0.39 0.43 0.46 0.45 0.40 0.40 0.46 0.48 0.45 0.47 0.53 0.54 0.54 0.52 0.52 0.54 0.54 0.57 0.62
0.06 0.04 0.03 0.03 0.03 0.05 0.07 0.09 0.08 0.07 0.08 0.09 0.08 0.07 0.07 0.09 0.10 0.13 0.17 0.22 0.25 0.28 0.30 0.33 0.37 0.42 0.46 0.50 0.49 0.46 0.46 0.49 0.54 0.50 0.50 0.57 0.61 0.59 0.56 0.57 0.58 0.56 0.53 0.57
0.04 0.05 0.04 0.04 0.04 0.04 0.06 0.08 0.08 0.07 0.08 0.09 0.09 0.08 0.08 0.11 0.13 0.15 0.18 0.22 0.24 0.25 0.28 0.34 0.42 0.47 0.48 0.53 0.55 0.51 0.50 0.52 0.54 0.53 0.53 0.58 0.63 0.63 0.61 0.62 0.62 0.60 0.56 0.59
0.03 0.03 0.04 0.03 0.03 0.04 0.04 0.06 0.08 0.07 0.08 0.09 0.09 0.10 0.11 0.12 0.14 0.16 0.19 0.21 0.25 0.29 0.32 0.37 0.45 0.46 0.48 0.55 0.60 0.56 0.55 0.58 0.60 0.60 0.57 0.63 0.67 0.66 0.65 0.65 0.64 0.61 0.59 0.59
0.03 0.03 0.04 0.04 0.03 0.04 0.04 0.05 0.08 0.08 0.08 0.09 0.10 0.11 0.12 0.13 0.15 0.17 0.20 0.22 0.28 0.38 0.40 0.44 0.47 0.49 0.51 0.53 0.58 0.61 0.64 0.66 0.67 0.68 0.65 0.64 0.67 0.71 0.69 0.67 0.66 0.64 0.62 0.61
0.04 0.05 0.05 0.05 0.04 0.04 0.05 0.06 0.09 0.10 0.09 0.11 0.12 0.14 0.15 0.15 0.17 0.19 0.21 0.22 0.25 0.35 0.41 0.48 0.52 0.55 0.55 0.57 0.62 0.66 0.71 0.71 0.72 0.75 0.74 0.71 0.71 0.74 0.72 0.70 0.69 0.66 0.64 0.63
0.06 0.06 0.07 0.07 0.06 0.06 0.06 0.07 0.09 0.12 0.12 0.13 0.14 0.15 0.15 0.16 0.18 0.20 0.22 0.26 0.29 0.38 0.44 0.50 0.56 0.63 0.66 0.66 0.63 0.68 0.73 0.73 0.74 0.77 0.78 0.75 0.74 0.76 0.74 0.73 0.73 0.68 0.63 0.62
0.08 0.09 0.09 0.09 0.08 0.07 0.07 0.08 0.10 0.13 0.16 0.16 0.17 0.18 0.19 0.19 0.21 0.24 0.27 0.28 0.33 0.43 0.49 0.55 0.65 0.72 0.76 0.69 0.65 0.69 0.74 0.75 0.76 0.79 0.80 0.77 0.76 0.76 0.76 0.75 0.74 0.71 0.68 0.65
0.13 0.13 0.12 0.12 0.11 0.11 0.11 0.12 0.12 0.16 0.20 0.21 0.23 0.24 0.25 0.24 0.25 0.27 0.31 0.36 0.41 0.49 0.55 0.63 0.72 0.76 0.80 0.73 0.69 0.72 0.76 0.76 0.75 0.79 0.81 0.80 0.80 0.80 0.77 0.76 0.76 0.70 0.65 0.63
0.17 0.17 0.17 0.17 0.17 0.17 0.17 0.17 0.17 0.21 0.24 0.26 0.26 0.28 0.30 0.31 0.31 0.33 0.35 0.39 0.46 0.52 0.58 0.64 0.71 0.77 0.79 0.78 0.75 0.76 0.78 0.78 0.80 0.85 0.85 0.84 0.82 0.81 0.79 0.73 0.70 0.68 0.66 0.62
0.23 0.23 0.23 0.22 0.23 0.23 0.23 0.22 0.24 0.25 0.27 0.28 0.29 0.30 0.33 0.36 0.37 0.38 0.40 0.44 0.49 0.55 0.58 0.62 0.68 0.75 0.79 0.80 0.78 0.79 0.80 0.83 0.86 0.84 0.81 0.81 0.80 0.79 0.77 0.72 0.67 0.65 0.64 0.61
0.29 0.28 0.28 0.28 0.29 0.29 0.29 0.29 0.30 0.32 0.33 0.33 0.35 0.35 0.36 0.38 0.39 0.41 0.44 0.48 0.52 0.56 0.60 0.64 0.69 0.75 0.80 0.82 0.84 0.85 0.84 0.83 0.82 0.82 0.82 0.80 0.77 0.77 0.74 0.71 0.68 0.65 0.63 0.60